Weather in Wilmington

United States     34°14′11″N   77°55′40″W
В апреле 2022 года жителям России запретили посещать сайт meteo.paraplan.net по решению Генеральной прокуратуры. Аудитория сайта уменьшилась в 10 раз. Владельцы сайта не видят смысла в поддержке погодного сервера в таких условиях. Сайт будет закрыт в октябре.
temp.,
°C
wind,
m/s
gust,
m/s
humid.,
%
clouds,
%
prec.,
mm/h
press.,
hPa
HPBL,
m
4 october, tue
tue423:00+13n4107342 0.0 1019660
02:00+10n410770 0.0 1018537
05:00+9nnw39845 0.0 1017397
08:00+10nnw39810 0.0 1018585
11:00+16nnw46550 0.0 1018959
14:00+20nnw57400 0.0 10161335
17:00+20nnw37380 0.0 10151833
20:00+14w11540 0.0 101612
5 october, wed
wed523:00+12nnw22620 0.0 101627
02:00+11nw23640 0.0 101654
05:00+10nw23710 0.0 101656
08:00+11wnw24720 0.0 1017111
11:00+18wnw34450 0.0 1017794
14:00+22wnw34420 0.0 10161326
17:00+22nw34460 0.0 10151335
20:00+16n11721 0.0 101726
6 october, thu
thu623:00+15wnw007450 0.0 101711
02:00+14n11790 0.0 101819
05:00+13n11855 0.0 101822
08:00+14nnw118432 0.0 101950
11:00+22w125322 0.0 1019652
14:00+26wnw23430 0.0 10171615
17:00+25s125150 0.0 10171408
20:00+19s237615 0.0 101886
7 october, fri
fri723:00+17sw23810 0.0 101969
02:00+16ssw23850 0.0 101861
05:00+16wsw23910 0.0 101853
08:00+16wsw24860 0.0 1019104
11:00+25sw35490 0.0 1019823
14:00+28sw45361 0.0 10171749
17:00+26sw455020 0.0 1016994
20:00+20ssw2878100 0.0 1017170
8 october, sat
sat823:00+19sw249072 0.0 101871
02:00+16n5126272 0.0 1020453
05:00+14n4107080 0.0 1021463
08:00+13nne496921 0.0 1023492
11:00+17nne454759 0.0 1024791
14:00+20nne323996 0.0 10221147
17:00+20n2243100 0.0 10211016
20:00+16nne265296 0.0 1022182